Regional Weather Roundup
Issued by NWS Charleston, SC

Current Version | Previous Version | Graphics & Text | Print | Product List | Glossary On
Versions: 1 2 3 4 5 6 7 8 9 10 11 12 13 14 15 16 17 18 19 20 21 22 23 24 25 26 27 28 29 30 31 32 33 34 35 36 37 38 39 40 41 42 43 44 45 46 47 48 49 50
941
ASUS42 KCHS 201127
RWRCHS

REGIONAL WEATHER ROUNDUP
NATIONAL WEATHER SERVICE CHARLESTON SC
700 AM EDT THU JUL 20 2017

NOTE: "FAIR" INDICATES FEW OR NO CLOUDS BELOW 12,000 FEET WITH NO
SIGNIFICANT WEATHER AND/OR OBSTRUCTIONS TO VISIBILITY.

NOT ALL STATIONS ARE QUALITY CONTROLLED. USE DATA WITH CAUTION...
ESPECIALLY DEWPOINT OBSERVATIONS.

SCZ027-030-031-034>040-042>050-201200-
...SOUTHEAST SOUTH CAROLINA...

CITY           SKY/WX    TMP DP  RH WIND       PRES   REMARKS
N CHARLESTON   PTCLDY    72  71  97 NW3       30.08R FOG
WATERFRONT PRK   N/A     77  75  93 CALM      30.06R
JOHNS ISLAND   FAIR      77  75  94 CALM      30.08S
PINOPOLIS        N/A     75  73  94 VRB2      30.01R
MONCKS CORNER  FAIR      70  68  94 CALM      30.09R
SUMMERVILLE    PTSUNNY   70  68  94 CALM      30.10R FOG
BEAUFORT MCAS  PTCLDY    76  75  97 CALM      30.08S
BEAUFORT ARPT  FAIR      77  75  94 CALM      30.08R FOG
HILTON HEAD IS CLEAR     77  77 100 CALM      30.08S
WALTERBORO     MOSUNNY   68  68 100 CALM      30.09S
ALLENDALE        N/A    N/A N/A N/A MISG        N/A

...SOUTHERN MIDLANDS AND PEE DEE...

CITY           SKY/WX    TMP DP  RH WIND       PRES   REMARKS
GEORGETOWN     FAIR      70  70 100 CALM      30.10R
KINGSTREE      FAIR      68  66  94 CALM      30.08S
ORANGEBURG     CLEAR     71  69  93 CALM      30.08S
BARNWELL       FAIR      73  72  94 CALM      30.09R
AIKEN          FAIR      72  70  94 CALM      30.12S
MANNING        FAIR      68  68 100 CALM      30.08S FOG
COLUMBIA       CLEAR     74  69  85 CALM      30.07S
SUMTER         CLEAR     72  70  94 CALM      30.06S
FLORENCE       CLEAR     71  70  96 CALM      30.08S
MYRTLE BEACH   PTCLDY    72  70  94 NW6       30.08S
N MYRTLE BEACH CLEAR     72  70  93 CALM      30.08R

$$

GAZ063-065-086>088-099>101-113>116-118-119-134>141-150-201200-
...SOUTHEAST GEORGIA...

CITY           SKY/WX    TMP DP  RH WIND       PRES   REMARKS
SAVANNAH ARPT  PTCLDY    75  72  90 CALM      30.08S
HUNTER AAF     CLEAR     75  73  94 CALM      30.05S FOG
FORT STEWART   CLEAR     73  72  94 CALM      30.05S FOG
STATESBORO     CLEAR     75  75 100 CALM      30.08R
SYLVANIA       SUNNY     73  73 100 CALM      30.09S
CLAXTON        FAIR      72  72  99 CALM      30.08R

...CSRA...CENTRAL AND FAR SOUTHEAST GEORGIA...

CITY           SKY/WX    TMP DP  RH WIND       PRES   REMARKS
THOMSON        CLEAR     74  71  90 CALM      30.14R
AUGUSTA-BUSH   CLEAR     73  71  93 CALM      30.08  FOG
AUGUSTA-DANIEL CLEAR     77  69  76 S3        30.09R
SWAINSBORO     FAIR      72  72 100 CALM      30.09S
VIDALIA        CLEAR     75  73  94 CALM      30.08S
EASTMAN        FAIR      74  74 100 CALM      30.11S
HAZLEHURST     FAIR      76  76 100 CALM      30.07S
ALMA           CLEAR     74  71  91 CALM      30.08S
WAYCROSS       CLEAR     76  76 100 CALM      30.08S
JESUP            N/A     73  70  88 CALM      30.08S
BAXLEY         FAIR      73  73 100 CALM      30.08S
BRUNSWICK      FOG       75  75 100 CALM      30.08S VSB 1/4
SAINT SIMONS   CLEAR     78  75  90 W5        30.08S

$$

SCZ027-028-034-036>038-045-046-048>050-GAZ119-141-201200-
...LAKE AND SUPPLEMENTAL COASTAL OBSERVATIONS...

STATION/POSITION TIME  TEMP    WIND        PRES    WAVE   SWELL
                       AIR SEA DIR/SP/G            HT/PER HT/PER/DIR
                 (UTC) (F)     (DEG/KT/KT) (MB)    (FT/S) (FT/S/D)
WINYAH BAY       1045   72     290/  4     1018.0S
LAKE MURRAY      1120   78     260/  4/  5 1017.6
ACE BASIN NERRS  1045   74        CALM     1018.0S
FORT PULASKI     1100   78 85  270/  5/  6 1018.7
SAPELO ISLAND    1100   79     250/  6     1018.0

$$

ANZ835-935-AMZ111-154-330-350-352-354-370-450-454-472-201200-
...C-MAN AND BUOY OBSERVATIONS...

STATION/POSITION TIME  TEMP    WIND        PRES    WAVE   SWELL
                       AIR SEA DIR/SP/G            HT/PER HT/PER/DIR
                 (UTC) (F)     (DEG/KT/KT) (MB)    (FT/S) (FT/S/D)
BUOY 41004       1110   81 83  280/  8/ 10 1018.1
BUOY 41008       1050   81 81  260/ 10/ 12 1017.9R   2/ 8   2/ 70/ 8
FOLLY BEACH CMAN 1100   78     310/  2/  3 1019.1R
CAPERS NEARSHORE 1108   78 83  310/  8/ 12 1018.4R
FRIPP NEARSHORE  1108   81 83  270/ 10/ 12 1017.9R


STATION/POSITION TIME  TEMP    WIND        PRES    WAVE   SWELL
                       AIR SEA DIR/SP/G            HT/PER HT/PER/DIR
                 (UTC) (F)     (DEG/KT/KT) (MB)    (FT/S) (FT/S/D)
5E ST. MARYS GA  1100      81                N/A     2/ 7
FRYING PAN BUOY  1110   80 83  300/ 10/ 14 1018.3
BUOY 41025       1050   81 84  320/  6/  8 1017.9R   2/ 6   2/150/ 6
CAPE LOOKOUT NC  1100   78     350/  5/  5 1017.6S
BUOY 41002       1050   80 83  250/  2/  4 1019.5R   4/ 7   3/130/ 7
BUOY 41010       1110   82 85  220/  6/ 10 1018.5
ST AUGUSTINE FL  1100   76 79  190/  2/  2 1018.9R


$$




USA.gov is the U.S. government's official web portal to all federal, state and local government web resources and services.